Regional Weather Roundup
Issued by NWS

Home | Current Version | Previous Version | Text Only | Print | Product List | Glossary Off
Versions: 1 2 3 4 5 6 7 8 9 10 11 12 13 14 15 16 17 18 19 20 21 22 23 24 25 26 27 28 29 30 31 32 33 34 35 36 37 38 39 40 41 42 43 44 45 46 47 48 49 50

000
ASUS43 KMPX 261701
RWRMN
WEATHER ROUNDUP FOR MINNESOTA
NATIONAL WEATHER SERVICE TWIN CITIES/CHANHASSEN MN
1200 PM CDT THU APR 26 2018


NOTE: "FAIR" INDICATES FEW OR NO CLOUDS BELOW 12,000 FEET WITH NO
SIGNIFICANT WEATHER AND/OR OBSTRUCTIONS TO VISIBILITY. N/A MEANS
CURRENT SKY AND/OR WEATHER CONDITIONS ARE NOT AVAILABLE.

MNZ060>063-068>070-261800-
   Twin Cities Metro

CITY           SKY/WX    TMP DP  RH WIND       PRES   REMARKS
TWIN CITIES    PTSUNNY   59  35  40 NW13G23   29.87R
ST PAUL        FAIR      59  34  39 W9G15     29.86S
CRYSTAL        PTSUNNY   57  33  40 NW9       29.86R
BLAINE         PTSUNNY   59  34  38 NW8       29.86R
LAKEVILLE      FAIR      57  37  47 W12       29.85S
EDEN PRAIRIE   FAIR      57  35  43 NW13      29.87R
SOUTH ST PAUL  FAIR      60  32  34 W7        29.85R
LAKE ELMO      FAIR      59  34  38 NW5       29.86S
$$
MNZ001>005-007-008-013>017-022>024-027-028-261800-
   Northwest Minnesota

CITY           SKY/WX    TMP DP  RH WIND       PRES   REMARKS
BEMIDJI        PTSUNNY   50  31  48 N16G23    29.96R
HALLOCK        FAIR      52  25  35 NW21G26   30.04S
ROSEAU         FAIR      50  34  53 W13       29.99S
WARROAD        FAIR      48  30  49 W15G21    29.99S
THIEF RVR FALL FAIR      49  29  46 N16G24    30.03R
CROOKSTON      FAIR      50  32  50 N21G26    30.05S
FOSSTON        FAIR      48  32  53 N17G24    30.01R
DETROIT LAKES  FAIR      48  30  49 N17G29    30.01R
MOORHEAD       FAIR      52  28  40 N26G32    30.05R
PARK RAPIDS    FAIR      52  30  43 N14G24    29.95R
MAHNOMEN       FAIR      49  31  49 N16G24    30.01R
$$
MNZ006-009>011-018-025>026-261800-
   North Central Minnesota

CITY           SKY/WX    TMP DP  RH WIND       PRES   REMARKS
BAUDETTE       FAIR      48  31  51 NW15G23   29.96S
FLAG ISLAND    FAIR      43  27  52 N13       29.97R
INTL FALLS     PTSUNNY   49  31  49 N14       29.92S
WASKISH        PTSUNNY   48  34  57 NW12      29.96R
BIG FORK       PTSUNNY   52  34  50 NW9       29.92R
LONGVILLE      CLOUDY    50  34  53 NW9       29.93R
GRAND RAPIDS   FAIR      51  33  50 N18G24    29.91R
CRANE LAKE     CLOUDY    45  32  61 NW10      29.92R
ORR            CLOUDY    46  28  49 NW9G16    29.89R
COOK           CLOUDY    46  34  61 NW12      29.90R
WALKER         PTSUNNY   49  32  51 NW16G22   29.94R
$$
MNZ012-019>021-037-261800-
   Northeast Minnesota

CITY           SKY/WX    TMP DP  RH WIND       PRES   REMARKS
DULUTH         FAIR      53  36  52 N16G26    29.82R
ELY            CLOUDY    46  32  57 N10G17    29.87R
HIBBING        PTSUNNY   50  31  48 N17G25    29.88R
EVELETH        FAIR      51  33  50 N16G23    29.88R
DULUTH HARBOR  FAIR      55  36  47 NW5       29.84R
TWO HARBORS    FAIR      61  39  44 NW14G20   29.79S
SILVER BAY     PTSUNNY   54  36  50 NW14G23   29.79R
G MARAIS ARPRT LGT RAIN  37  32  81 N18G28    29.79R
$$
MNZ029>031-032-039>041-046>048-054>057-064-261800-
   West Central Minnesota

CITY           SKY/WX    TMP DP  RH WIND       PRES   REMARKS
FERGUS FALLS   FAIR      52  25  35 N22G35    29.99R
WHEATON        SUNNY     54  27  35 NW26G37   30.05S
MORRIS         SUNNY     54  32  43 NW32G40   29.99R
ALEXANDRIA     FAIR      57  26  30 NW21G26   29.96R
ELBOW LAKE     FAIR      50  24  37 NW23G37   30.00R
WADENA         FAIR      52  30  43 NW13G22   29.95R
GLENWOOD       FAIR      55  28  35 NW17G26   29.96R
APPLETON       SUNNY     57  30  35 N24G39    30.00R
BENSON         SUNNY     57  25  28 N26G35    29.99R
ORTONVILLE     SUNNY     55  30  38 N30       30.02R
MADISON        SUNNY     57  34  41 N31G39    30.02R
WILLMAR        FAIR      55  34  44 NW23G30   29.97R
$$
MNZ033>034-036-042>043-049>051-058-059-261800-
   Central Minnesota

CITY           SKY/WX    TMP DP  RH WIND       PRES   REMARKS
ST CLOUD       FAIR      58  34  40 N18G29    29.89R
SAUK CENTRE    FAIR      55  30  38 NW16G22   29.94R
PAYNESVILLE    FAIR      56  34  42 NW17G26   29.93R
AITKIN         FAIR      54  32  43 N13G24    29.88R
PINE RIVER     FAIR      50  32  50 N14G21    29.96R
BRAINERD       FAIR      55  32  41 NW23G29   29.92R
STAPLES        FAIR      55  27  33 N16       29.93S
LONG PRAIRIE   FAIR      54  32  43 W16G26    29.93S
LITTLE FALLS   FAIR      55  19  24 NW14G22   29.91R
LITCHFIELD     FAIR      59  37  44 N16G22    29.91R
BUFFALO        FAIR      57  36  45 NW14      29.89R
MAPLE LAKE     FAIR      58  40  51 N13G21    29.90R
HUTCHINSON     FAIR      58  41  52 N16G25    29.91R
$$
MNZ037-044-045-052-053-261800-
   East Central Minnesota

CITY           SKY/WX    TMP DP  RH WIND       PRES   REMARKS
PRINCETON      FAIR      59  37  44 NW10G18   29.88S
MORA           FAIR      55  36  47 N12G17    29.87S
CAMBRIDGE      FAIR      57  39  51 NW12G20   29.87R
RUSH CITY      FAIR      56  35  44 N9        29.86R
MOOSE LAKE     FAIR      55  36  47 NW14      29.84R
HINCKLEY       FAIR      55  36  47 N8        29.84S
CLOQUET        FAIR      54  34  47 N17G29    29.84R
MCGREGOR       FAIR      55  34  44 N20       29.88R
$$
MNZ071>073-080-081-089-090-097-098-261800-
   Southwest Minnesota

CITY           SKY/WX    TMP DP  RH WIND       PRES   REMARKS
MONTEVIDEO     SUNNY     57  30  35 NE28G39   29.98R
GRANITE FALLS  SUNNY     57  35  42 NW22G33   29.99R
CANBY          SUNNY     55  31  39 N28G36    30.03R
MARSHALL       SUNNY     53  37  54 N25G36    29.98R
REDWOOD FALLS  SUNNY     59  36  42 N14G31    29.94R
OLIVIA         SUNNY     55  34  44 N22G31    29.93R
PIPESTONE      SUNNY    N/A N/A N/A N22G32    29.99R
WINDOM         MOSUNNY   55  34  44 NW28      29.92S
WORTHINGTON    MOSUNNY   53  42  66 N28G33    29.94R
JACKSON        PTSUNNY   52  41  66 NW22G32   29.93R
TRACY          SUNNY     55  40  58 N26G32    29.97R
SLAYTON        SUNNY     51  42  70 N28G33    29.95R
$$
MNZ065>067-074>077-082>085-091>093-261800-
   South Central Minnesota

CITY           SKY/WX    TMP DP  RH WIND       PRES   REMARKS
MANKATO        FAIR      56  39  53 NW15      29.90R
NEW ULM        MOSUNNY   55  39  54 NW17G23   29.91R
ST JAMES       MOSUNNY   54  45  71 NW17G23   29.92R
FAIRMONT       PTSUNNY   54  40  59 NW18      29.92R
GLENCOE        FAIR      57  41  54 NW9G16    29.89R
OWATONNA       FAIR      61  41  48 W16G22    29.87S
WASECA         FAIR      59  39  47 W16G24    29.89S
ALBERT LEA     FAIR      57  36  44 W13G18    29.88S
$$
MNZ078>079-086>088-094>096-261800-
   Southeast Minnesota

CITY           SKY/WX    TMP DP  RH WIND       PRES   REMARKS
ROCHESTER      FAIR      59  38  45 SW17G29   29.89F
RED WING       FAIR      66  27  22 NE13      29.83S
STANTON        FAIR      61  37  40 W14       29.84S
DODGE CENTER   FAIR      59  37  44 SW17G25   29.87S
WINONA         FAIR      63  32  31 W8        29.86S
AUSTIN         FAIR      57  36  44 SW14G20   29.89S
PRESTON        FAIR      61  33  34 W16       29.90F
$$
ABBREVIATIONS USED IN REMARKS
   TC - TEMPERATURES IN CELSIUS
  WCI - WIND CHILL INDEX
   HX - HEAT INDEX
  VSB - VISIBILITY
$$



USA.gov is the U.S. government's official web portal to all federal, state and local government web resources and services.